Temperature
10 10 10 10 10 10 10 10 10 10 10 10 10 10 10 10 10 10 10 10 10 10 10 10 10 9 9 10 10 10 10 10 10 10 11 11 11 11 11 11 11 11 11
10 10 10 9 10 10 10 10 10 10 10 10 9 9 9 9 9 9 9 9 9 9 9 9 9 9 9 9 9 9 9 10 10 10 10 10 10 10 10 10 11 11 11
9 9 9 9 9 9 9 9 9 9 9 9 9 9 9 9 9 9 9 9 9 9 9 9 9 9 9 9 9 9 9 9 9 9 10 10 10 10 10 10 10 10 10
9 9 9 9 9 9 9 9 9 9 9 9 9 9 9 8 9 9 9 8 8 8 9 9 9 9 9 8 8 8 9 9 9 9 9 9 9 9 10 10 10 10 10
8 8 8 8 8 8 8 8 8 8 8 8 8 8 8 8 8 8 8 8 8 8 8 8 8 8 8 8 8 8 8 8 8 8 9 9 9 9 9 9 9 9 9
7 7 8 8 8 8 8 8 8 8 8 8 8 8 7 7 7 7 7 7 7 7 7 8 8 8 8 8 8 8 8 8 8 8 8 8 8 8 8 8 9 9 9
6 7 7 7 7 7 7 7 7 7 7 7 7 7 7 7 6 7 7 7 7 7 7 7 7 7 7 7 7 7 7 7 7 7 8 8 8 8 8 8 8 8 8
6 6 6 6 6 7 7 7 7 7 7 6 6 6 6 6 6 6 6 6 6 6 6 7 7 7 7 7 7 7 7 7 7 7 7 7 7 7 8 8 8 8 8
5 5 5 5 6 6 6 6 6 6 6 6 6 6 5 5 5 5 5 5 6 6 6 6 6 6 6 6 6 7 6 6 6 6 6 7 7 7 7 7 7 7 7
5 5 5 5 5 5 5 5 5 5 5 5 5 5 5 5 4 4 5 5 5 5 5 6 6 6 6 6 6 6 6 6 6 6 6 6 6 6 7 7 7 7 7
4 4 4 4 4 4 4 4 4 5 5 5 4 4 4 4 4 4 4 5 5 5 5 5 5 5 5 5 5 5 5 5 5 6 6 6 6 6 6 6 6 6 6
4 4 4 4 4 4 4 4 4 4 4 4 4 4 4 4 3 3 3 4 4 4 4 4 4 4 5 5 5 5 5 5 5 5 5 5 5 5 6 6 6 6 6
3 3 3 3 3 3 3 3 3 3 3 3 3 3 3 3 3 3 2 2 3 3 4 4 4 4 4 4 4 4 4 4 4 4 4 5 5 5 5 5 5 5 6
3 3 3 3 3 3 3 3 3 3 3 2 2 2 2 2 2 2 2 2 1 2 3 3 3 3 3 3 3 4 4 4 4 4 4 4 4 4 4 5 5 5 5
2 2 2 2 2 2 2 2 2 2 2 2 2 2 2 2 2 1 1 1 1 0 1 2 2 2 2 3 3 3 3 3 3 4 3 3 4 4 4 4 4 4 5
1 1 1 1 2 2 2 2 2 1 1 1 1 1 1 1 1 1 1 1 0 -0 -0 1 1 1 2 2 2 2 3 3 3 3 3 3 3 3 3 4 4 4 4
1 1 1 1 1 1 1 1 1 1 1 1 1 0 0 0 0 0 0 -0 -0 -0 -1 0 1 1 1 1 2 2 2 2 2 2 2 2 2 2 3 3 3 3 4
-0 -0 -0 0 0 0 0 0 0 0 0 -0 -0 -0 -0 -0 -1 -1 -1 -1 -1 -1 -1 -1 -0 0 0 0 1 1 1 1 1 1 1 1 2 2 2 2 2 3 3
-1 -1 -1 -1 -1 -1 -1 -1 -1 -1 -1 -1 -1 -1 -1 -1 -1 -1 -1 -1 -1 -2 -2 -2 -1 -1 -1 -0 -0 0 0 0 1 1 1 1 1 1 1 2 2 2 2
-2 -2 -2 -2 -2 -2 -1 -2 -2 -2 -2 -2 -2 -2 -2 -2 -2 -2 -2 -2 -2 -2 -2 -2 -2 -2 -2 -1 -1 -1 -1 -0 -0 -0 -0 0 0 0 1 1 1 1 1
-3 -3 -3 -2 -2 -2 -2 -3 -3 -3 -3 -3 -3 -3 -3 -3 -3 -3 -3 -3 -3 -3 -3 -3 -3 -3 -2 -2 -2 -2 -2 -1 -1 -1 -1 -1 -0 -0 0 0 0 0 1
-3 -3 -3 -3 -3 -3 -3 -3 -4 -4 -4 -4 -4 -3 -4 -3 -3 -4 -4 -4 -4 -4 -4 -4 -4 -3 -3 -3 -3 -3 -3 -3 -2 -2 -2 -1 -1 -1 -1 -1 -0 -0 -0
-4 -4 -4 -4 -4 -4 -4 -4 -4 -5 -5 -5 -4 -4 -4 -4 -4 -4 -4 -4 -4 -4 -4 -4 -4 -4 -4 -3 -4 -3 -3 -3 -3 -3 -3 -2 -2 -2 -1 -1 -1 -1 -1
-5 -5 -5 -5 -5 -5 -5 -5 -5 -5 -5 -5 -5 -5 -5 -5 -5 -5 -5 -5 -5 -5 -4 -5 -5 -4 -4 -4 -4 -4 -4 -4 -4 -3 -3 -3 -3 -2 -2 -2 -1 -1 -1
-6 -6 -6 -6 -6 -5 -6 -6 -6 -6 -6 -6 -6 -6 -6 -6 -6 -6 -6 -6 -6 -5 -5 -5 -5 -5 -5 -5 -5 -5 -5 -5 -4 -4 -4 -4 -3 -3 -3 -2 -2 -2 -2
-6 -6 -6 -7 -7 -6 -6 -7 -7 -7 -7 -7 -7 -7 -7 -7 -7 -7 -7 -7 -7 -6 -6 -6 -5 -5 -5 -5 -5 -5 -5 -5 -5 -5 -4 -4 -4 -4 -4 -3 -3 -2 -2
Wind_Speed
5 5 5 6 6 6 6 6 6 7 7 7 8 8 7 8 8 7 6 6 6 6 6 6 7 7 7 7 6 6 7 6 6 6 5 5 5 5 5 5 5 5 5
6 5 5 5 5 6 6 6 6 5 5 6 6 6 6 7 7 7 7 7 7 7 6 6 6 5 6 6 6 5 5 5 4 4 3 3 4 4 4 4 4 4 4
6 6 4 4 4 5 6 6 6 7 5 5 5 5 5 6 6 7 7 7 6 7 6 6 6 6 5 5 4 4 4 4 3 3 3 3 3 3 3 2 3 3 3
7 6 5 4 5 5 5 4 4 4 4 3 3 3 4 5 6 6 7 7 6 6 6 6 5 4 5 5 4 3 3 4 3 2 2 1 1 2 2 1 1 1 2
7 6 5 5 6 6 5 4 3 3 3 3 2 3 3 4 4 6 7 7 7 6 6 6 5 4 4 3 3 3 3 3 3 3 1 1 1 2 2 2 1 1 1
7 7 6 6 6 5 4 4 3 3 3 2 3 3 3 3 4 5 5 5 6 6 5 6 6 5 6 5 3 3 2 2 3 3 2 1 2 3 3 3 3 3 3
6 6 5 5 5 4 3 4 3 4 3 2 2 2 3 3 3 3 4 4 5 4 5 5 5 5 5 5 5 4 4 3 3 3 3 3 3 3 4 3 4 4 4
5 5 5 4 4 4 4 4 4 2 2 2 2 2 1 2 2 3 3 3 4 4 4 4 4 4 4 4 5 4 4 5 5 5 5 4 4 5 5 5 5 6 6
5 5 5 5 4 3 3 3 3 3 2 1 2 2 2 1 2 2 2 2 2 3 3 4 4 3 3 4 4 4 5 6 6 6 5 5 4 4 4 5 6 6 6
5 4 4 4 4 3 3 2 3 2 2 1 1 2 1 1 1 1 2 2 3 2 2 3 3 3 2 3 4 4 5 5 6 6 6 7 6 6 6 6 6 6 7
4 4 4 4 3 3 3 2 2 2 2 1 1 0 1 1 0 1 2 3 4 3 3 3 3 3 2 2 2 3 5 6 6 7 7 7 8 8 8 8 9 8 8
2 2 3 3 3 2 2 2 2 2 1 1 1 0 0 0 0 0 1 3 4 4 4 3 3 2 2 2 3 4 5 6 7 8 8 8 9 9 9 9 9 10 10
1 0 1 1 1 1 1 2 2 1 1 1 1 1 0 1 1 1 1 2 3 3 3 2 3 2 3 3 4 6 6 7 8 9 9 9 9 10 10 10 9 10 10
2 1 0 1 1 1 1 1 1 1 1 1 1 1 1 1 1 1 1 2 3 3 3 4 2 3 3 4 6 6 6 8 9 10 10 10 10 10 11 11 10 10 10
1 1 1 0 1 1 0 0 1 1 1 2 2 1 1 2 1 2 2 2 2 3 4 4 2 3 6 7 7 7 7 9 10 11 11 11 11 11 11 11 11 10 10
1 1 1 0 0 1 1 0 1 1 1 2 2 2 2 2 2 2 2 2 3 4 5 4 4 4 7 8 8 7 8 10 11 11 12 12 11 11 11 12 12 11 10
1 1 1 1 1 1 1 1 2 2 2 2 2 3 3 2 2 2 2 3 3 3 7 7 5 5 5 6 7 8 8 9 10 11 12 12 12 12 12 12 12 12 11
2 2 2 2 2 2 2 2 2 2 3 4 3 3 4 3 4 3 3 4 4 4 5 8 7 5 6 6 6 6 7 9 10 11 12 12 12 12 12 12 12 12 11
2 2 2 2 2 2 3 3 3 3 3 4 4 4 5 4 5 4 4 4 4 5 5 6 7 5 5 5 5 5 6 7 9 10 11 12 13 13 13 12 12 12 12
2 2 3 3 3 3 4 3 3 3 3 4 4 4 5 5 6 5 5 5 5 5 5 6 7 6 5 5 4 5 6 5 6 8 10 12 12 13 12 12 13 13 13
3 3 2 2 3 3 4 4 3 4 4 4 5 5 6 7 8 7 7 5 5 5 5 6 7 6 6 5 6 5 7 6 6 5 6 7 8 8 10 12 13 13 13
3 2 3 3 4 4 6 7 6 4 5 5 6 5 6 7 9 11 12 11 9 8 7 7 7 8 8 7 6 6 6 6 7 4 5 7 6 7 9 10 13 14 13
3 3 3 3 4 5 7 8 8 5 5 6 6 6 7 7 9 6 9 11 11 13 12 10 10 11 9 8 7 8 8 8 9 6 5 8 6 8 9 12 15 15 15
3 3 4 4 5 6 8 8 8 5 5 6 7 7 7 7 8 7 7 7 8 9 10 9 10 11 10 9 9 10 10 9 8 6 6 8 7 7 8 11 14 15 15
3 4 4 4 5 6 8 8 8 4 5 7 7 7 8 8 11 11 8 8 9 8 10 13 14 15 16 16 13 8 7 7 9 7 5 6 6 7 7 7 11 14 15
4 4 4 4 5 6 8 9 8 5 6 6 6 7 9 10 12 12 8 7 9 9 8 8 9 11 12 13 15 11 9 9 8 7 5 5 6 4 6 5 6 8 11
Wind_Direction
88 83 79 78 74 71 71 70 68 69 68 69 70 68 62 59 60 57 57 65 74 73 75 79 83 83 80 77 73 72 65 65 69 68 71 79 86 90 89 92 99 96 98
94 90 80 73 69 70 74 77 76 72 70 74 67 64 64 63 62 59 57 57 62 67 69 73 76 78 80 75 70 68 62 57 66 68 73 85 91 95 95 90 98 106 107
94 90 84 73 67 74 77 77 74 75 71 65 59 56 62 63 64 61 60 59 56 54 57 66 70 65 70 70 69 65 62 52 56 60 66 85 92 102 105 102 95 107 118
90 90 82 71 68 75 75 78 76 82 70 65 57 46 49 59 63 68 66 58 54 46 44 51 58 59 58 59 58 55 63 56 43 42 52 70 102 117 121 126 122 120 127
87 85 80 74 80 74 64 74 75 84 83 65 59 53 45 49 56 67 62 58 55 51 47 40 37 42 36 44 43 43 47 47 37 24 4 318 234 213 204 218 216 209 182
88 84 75 73 82 77 71 73 82 70 80 77 69 48 34 42 57 59 54 56 51 48 45 40 37 31 21 22 22 16 14 19 21 7 344 299 253 241 238 239 239 240 236
86 85 80 75 76 82 82 89 90 79 53 57 67 39 18 28 44 42 42 51 37 34 40 37 38 36 20 12 15 12 8 355 343 332 331 310 274 251 247 252 249 248 250
85 86 85 85 80 86 80 81 86 86 61 40 82 94 33 359 1 4 13 27 26 25 26 21 27 27 21 19 8 1 349 348 347 343 339 313 287 263 253 255 255 255 253
82 79 82 86 83 95 101 93 89 92 108 22 44 99 124 215 298 319 329 345 359 4 6 12 11 4 2 9 12 360 352 347 341 337 331 327 314 296 272 260 257 258 256
81 76 81 86 88 87 104 108 86 87 116 111 12 30 69 159 180 289 304 317 323 326 328 342 337 337 335 352 359 354 346 342 339 335 328 322 310 298 284 276 269 266 262
78 74 75 76 82 79 94 100 87 86 103 133 123 17 42 26 70 199 273 302 317 302 306 303 300 312 311 330 335 335 342 334 328 324 318 316 309 296 291 281 272 268 267
79 64 66 68 72 74 94 104 107 110 113 125 99 83 143 190 264 259 264 296 298 295 303 287 276 288 304 330 327 328 327 324 321 315 311 307 309 302 295 291 280 270 266
147 155 66 78 76 64 68 80 107 149 150 155 179 232 245 249 242 252 264 286 291 293 293 278 265 279 294 309 321 325 318 315 314 312 310 306 303 304 297 290 287 281 274
185 167 109 79 60 69 59 67 103 189 170 195 240 237 266 275 261 252 242 269 297 290 275 270 277 264 286 301 315 320 313 309 306 304 303 304 305 302 300 291 285 284 283
152 140 107 84 355 3 4 149 203 231 213 224 232 238 258 270 264 258 242 227 230 268 273 265 269 280 299 300 299 300 302 304 303 300 298 296 297 298 297 295 289 285 284
124 142 140 152 337 320 306 231 228 243 236 249 239 234 257 265 263 261 248 251 241 246 264 263 267 290 293 291 287 288 290 295 296 295 295 294 293 293 294 295 289 285 283
162 185 197 229 251 274 299 254 250 240 239 252 253 244 254 255 258 260 253 255 255 252 265 279 279 283 283 286 289 283 284 284 286 288 290 291 291 291 290 291 290 285 283
192 203 210 225 245 262 258 245 256 263 248 247 251 249 257 260 257 253 248 254 255 252 260 277 286 284 279 280 281 276 285 284 283 281 283 288 288 287 287 286 285 284 282
211 218 217 221 239 253 256 254 248 256 259 258 253 248 251 249 255 257 254 259 263 267 258 265 279 282 282 284 290 284 281 280 283 280 282 283 283 284 285 284 281 281 281
209 218 230 237 246 256 257 257 260 261 260 264 263 259 255 248 250 249 255 253 259 263 262 263 271 278 280 282 283 280 284 276 277 284 283 281 280 282 283 283 280 279 277
226 233 239 247 254 257 252 250 253 254 255 261 263 261 263 261 259 258 259 252 250 257 261 264 268 274 274 280 280 275 274 282 274 267 277 275 276 277 280 280 276 275 274
219 224 231 237 245 258 261 261 262 255 257 256 262 265 265 264 262 266 267 265 257 253 255 262 268 264 270 268 275 271 273 278 279 253 261 272 265 270 274 273 275 274 272
224 231 238 238 247 254 258 262 264 264 257 256 256 259 266 266 271 266 269 274 270 263 258 257 259 261 267 264 269 268 263 263 267 269 270 274 266 265 269 271 273 271 270
228 235 245 244 250 257 263 266 268 265 258 256 254 253 256 261 263 264 265 268 267 267 264 260 257 261 263 261 260 262 263 268 273 267 253 268 270 268 273 269 269 268 269
245 245 249 246 249 262 264 266 268 258 257 258 257 255 254 256 261 265 265 267 272 274 274 269 267 268 268 268 265 269 267 267 270 267 244 260 272 276 272 266 266 264 264
248 252 260 256 252 257 262 265 266 256 258 264 265 262 259 261 264 266 260 258 265 272 277 283 281 278 275 270 264 254 254 259 267 269 245 250 268 276 282 269 261 262 263
Height
1541 1542 1543 1544 1545 1545 1546 1547 1547 1548 1548 1549 1549 1550 1550 1550 1551 1551 1551 1552 1552 1552 1553 1553 1553 1553 1553 1553 1553 1554 1554 1554 1554 1554 1554 1555 1555 1556 1556 1557 1557 1557 1558
1540 1541 1542 1543 1544 1545 1545 1546 1546 1547 1547 1548 1548 1549 1549 1550 1550 1550 1551 1551 1552 1552 1552 1552 1552 1552 1552 1552 1553 1553 1553 1553 1553 1553 1553 1553 1554 1554 1555 1555 1556 1556 1557
1539 1540 1541 1542 1543 1544 1544 1545 1546 1546 1547 1547 1548 1548 1549 1549 1549 1549 1550 1550 1551 1551 1551 1551 1551 1551 1551 1551 1551 1552 1552 1552 1552 1551 1552 1552 1552 1552 1553 1554 1554 1555 1555
1537 1539 1540 1541 1542 1543 1543 1544 1545 1545 1546 1546 1547 1547 1547 1548 1548 1548 1549 1549 1549 1550 1550 1550 1550 1550 1550 1550 1550 1550 1550 1550 1550 1550 1550 1550 1550 1551 1551 1552 1553 1553 1554
1535 1537 1538 1539 1541 1541 1542 1543 1543 1544 1544 1545 1545 1546 1546 1547 1547 1547 1548 1548 1548 1548 1548 1548 1548 1548 1548 1548 1548 1548 1548 1548 1548 1548 1548 1548 1548 1549 1549 1550 1550 1551 1552
1533 1535 1536 1537 1539 1540 1541 1541 1542 1542 1543 1543 1543 1544 1545 1545 1546 1546 1546 1546 1546 1546 1546 1546 1546 1546 1546 1547 1546 1546 1546 1546 1546 1546 1546 1546 1546 1546 1547 1547 1548 1548 1549
1531 1532 1534 1535 1537 1538 1539 1539 1540 1541 1541 1542 1542 1542 1543 1544 1544 1544 1544 1545 1544 1544 1544 1544 1544 1544 1544 1544 1544 1544 1544 1544 1544 1544 1543 1543 1543 1544 1544 1545 1545 1546 1546
1529 1530 1532 1533 1534 1535 1536 1537 1538 1538 1539 1540 1540 1540 1541 1543 1542 1542 1542 1542 1542 1542 1542 1542 1542 1542 1542 1542 1541 1542 1541 1541 1541 1541 1541 1541 1541 1541 1541 1542 1542 1543 1543
1527 1529 1530 1531 1532 1533 1533 1534 1535 1536 1537 1538 1539 1539 1539 1539 1540 1540 1540 1540 1540 1540 1539 1539 1539 1539 1539 1539 1539 1539 1539 1539 1538 1538 1538 1538 1538 1538 1538 1539 1539 1539 1540
1525 1527 1528 1529 1530 1531 1531 1532 1533 1534 1535 1535 1536 1537 1538 1538 1538 1536 1537 1537 1537 1537 1537 1536 1536 1536 1536 1536 1536 1536 1536 1536 1535 1535 1535 1535 1534 1534 1534 1535 1535 1535 1536
1523 1525 1526 1527 1528 1529 1529 1530 1531 1532 1532 1533 1533 1534 1535 1535 1535 1535 1533 1533 1533 1533 1533 1533 1533 1533 1533 1532 1532 1533 1532 1532 1532 1532 1531 1531 1531 1530 1530 1531 1531 1531 1531
1521 1522 1523 1525 1525 1526 1527 1527 1528 1529 1530 1531 1531 1531 1532 1532 1532 1532 1531 1530 1529 1529 1529 1530 1529 1529 1529 1529 1529 1529 1529 1528 1528 1528 1528 1527 1527 1526 1526 1526 1526 1526 1527
1518 1519 1521 1522 1522 1523 1524 1525 1526 1527 1527 1528 1528 1528 1529 1529 1530 1530 1529 1528 1526 1525 1525 1526 1526 1526 1525 1525 1525 1525 1525 1524 1524 1524 1523 1523 1523 1522 1522 1521 1521 1522 1522
1515 1516 1518 1519 1520 1521 1521 1522 1522 1523 1524 1524 1525 1525 1525 1526 1526 1526 1526 1526 1524 1522 1521 1522 1522 1522 1522 1521 1521 1521 1520 1520 1520 1519 1519 1518 1518 1517 1517 1517 1517 1517 1517
1512 1513 1514 1515 1516 1517 1518 1518 1519 1519 1520 1520 1521 1521 1521 1522 1522 1523 1523 1523 1523 1520 1517 1517 1518 1518 1518 1517 1517 1516 1516 1515 1515 1515 1514 1514 1513 1512 1512 1512 1512 1512 1511
1508 1509 1510 1511 1512 1513 1514 1514 1514 1515 1515 1516 1516 1517 1517 1517 1518 1518 1519 1519 1519 1518 1515 1513 1513 1514 1513 1512 1512 1512 1511 1510 1510 1510 1509 1508 1508 1507 1507 1507 1506 1506 1506
1504 1505 1506 1507 1508 1509 1509 1510 1510 1510 1511 1511 1512 1512 1512 1513 1513 1514 1514 1514 1514 1513 1510 1508 1509 1509 1508 1507 1507 1506 1506 1505 1504 1504 1503 1503 1502 1502 1501 1501 1501 1501 1501
1500 1501 1502 1503 1503 1504 1505 1505 1505 1505 1506 1506 1506 1507 1507 1508 1508 1508 1508 1508 1508 1508 1507 1503 1502 1503 1502 1502 1501 1500 1500 1499 1499 1498 1498 1497 1497 1496 1496 1495 1495 1495 1495
1496 1497 1498 1498 1498 1499 1499 1499 1500 1500 1500 1501 1501 1501 1502 1502 1502 1502 1502 1502 1503 1502 1501 1499 1497 1497 1496 1496 1495 1495 1494 1493 1493 1492 1492 1491 1491 1490 1490 1489 1489 1489 1489
1491 1492 1493 1493 1493 1494 1494 1494 1494 1494 1495 1495 1495 1496 1496 1496 1496 1497 1497 1497 1497 1496 1496 1494 1492 1491 1490 1490 1490 1489 1487 1487 1486 1486 1486 1485 1485 1484 1483 1483 1483 1483 1483
1486 1487 1488 1488 1488 1489 1489 1489 1489 1489 1489 1489 1489 1490 1490 1490 1491 1491 1491 1491 1491 1490 1490 1488 1487 1486 1485 1484 1484 1483 1482 1481 1480 1480 1479 1478 1478 1477 1477 1477 1477 1476 1477
1481 1482 1482 1483 1483 1483 1484 1484 1484 1484 1484 1483 1483 1484 1484 1484 1485 1485 1485 1485 1485 1485 1484 1483 1481 1480 1479 1479 1479 1478 1477 1475 1472 1474 1473 1471 1472 1470 1470 1470 1470 1470 1470
1476 1476 1477 1477 1478 1478 1479 1479 1479 1478 1478 1478 1477 1477 1477 1478 1478 1478 1478 1479 1478 1478 1478 1478 1476 1474 1474 1474 1474 1472 1471 1469 1467 1467 1467 1463 1464 1463 1463 1463 1463 1463 1463
1471 1471 1471 1472 1472 1472 1473 1473 1473 1472 1472 1471 1471 1471 1471 1471 1472 1472 1472 1471 1471 1471 1471 1470 1469 1468 1468 1468 1468 1467 1465 1463 1461 1461 1461 1458 1456 1456 1456 1455 1455 1455 1456
1466 1466 1466 1466 1466 1466 1467 1467 1467 1466 1465 1465 1465 1465 1465 1465 1465 1465 1465 1464 1463 1463 1464 1463 1462 1461 1461 1461 1461 1460 1458 1457 1453 1453 1454 1452 1450 1449 1448 1448 1448 1448 1448
1461 1461 1461 1461 1461 1461 1461 1462 1462 1461 1460 1459 1459 1459 1459 1459 1459 1459 1459 1458 1456 1456 1456 1455 1455 1454 1453 1453 1453 1453 1451 1450 1447 1445 1446 1446 1444 1443 1441 1439 1440 1441 1441